Year,Month,Day,Hour,Minute,Value (Times are PST for temperature in C)
2017,05,26,00,00,10.70
2017,05,26,00,01,10.70
2017,05,26,00,02,10.70
2017,05,26,00,03,10.70
2017,05,26,00,04,10.60
2017,05,26,00,05,10.60
2017,05,26,00,06,10.60
2017,05,26,00,07,10.50
2017,05,26,00,08,10.50
2017,05,26,00,09,10.50
2017,05,26,00,10,10.40
2017,05,26,00,11,10.40
2017,05,26,00,12,10.40
2017,05,26,00,13,10.40
2017,05,26,00,14,10.30
2017,05,26,00,15,10.30
2017,05,26,00,16,10.30
2017,05,26,00,17,10.30
2017,05,26,00,18,10.30
2017,05,26,00,19,10.30
2017,05,26,00,20,10.30
2017,05,26,00,21,10.20
2017,05,26,00,22,10.20
2017,05,26,00,23,10.20
2017,05,26,00,24,10.20
2017,05,26,00,25,10.20
2017,05,26,00,26,10.20
2017,05,26,00,27,10.10
2017,05,26,00,28,10.10
2017,05,26,00,29,10.10
2017,05,26,00,30,10.10
2017,05,26,00,31,10.10
2017,05,26,00,32,10.10
2017,05,26,00,33,10.10
2017,05,26,00,34,10.10
2017,05,26,00,35,10.10
2017,05,26,00,36,10.10
2017,05,26,00,37,10.10
2017,05,26,00,38,10.10
2017,05,26,00,39,10.10
2017,05,26,00,40,10.10
2017,05,26,00,41,10.00
2017,05,26,00,42,10.00
2017,05,26,00,43,10.00
2017,05,26,00,44,9.90
2017,05,26,00,45,9.90
2017,05,26,00,46,9.90
2017,05,26,00,47,9.90
2017,05,26,00,48,9.80
2017,05,26,00,49,9.80
2017,05,26,00,50,9.80
2017,05,26,00,51,9.80
2017,05,26,00,52,9.80
2017,05,26,00,53,9.70
2017,05,26,00,54,9.70
2017,05,26,00,55,9.70
2017,05,26,00,56,9.70
2017,05,26,00,57,9.70
2017,05,26,00,58,9.70
2017,05,26,00,59,9.70
2017,05,26,01,00,9.70
2017,05,26,01,01,9.70
2017,05,26,01,02,9.70
2017,05,26,01,03,9.60
2017,05,26,01,04,9.60
2017,05,26,01,05,9.60
2017,05,26,01,06,9.60
2017,05,26,01,07,9.60
2017,05,26,01,08,9.60
2017,05,26,01,09,9.60
2017,05,26,01,10,9.60
2017,05,26,01,11,9.60
2017,05,26,01,12,9.60
2017,05,26,01,13,9.60
2017,05,26,01,14,9.60
2017,05,26,01,15,9.60
2017,05,26,01,16,9.60
2017,05,26,01,17,9.60
2017,05,26,01,18,9.60
2017,05,26,01,19,9.60
2017,05,26,01,20,9.50
2017,05,26,01,21,9.50
2017,05,26,01,22,9.50
2017,05,26,01,23,9.50
2017,05,26,01,24,9.50
2017,05,26,01,25,9.50
2017,05,26,01,26,9.50
2017,05,26,01,27,9.40
2017,05,26,01,28,9.40
2017,05,26,01,29,9.40
2017,05,26,01,30,9.40
2017,05,26,01,31,9.40
2017,05,26,01,32,9.30
2017,05,26,01,33,9.30
2017,05,26,01,34,9.30
2017,05,26,01,35,9.30
2017,05,26,01,36,9.30
2017,05,26,01,37,9.30
2017,05,26,01,38,9.20
2017,05,26,01,39,9.20
2017,05,26,01,40,9.20
2017,05,26,01,41,9.20
2017,05,26,01,42,9.20
2017,05,26,01,43,9.20
2017,05,26,01,44,9.20
2017,05,26,01,45,9.20
2017,05,26,01,46,9.20
2017,05,26,01,47,9.20
2017,05,26,01,48,9.20
2017,05,26,01,49,9.20
2017,05,26,01,50,9.20
2017,05,26,01,51,9.10
2017,05,26,01,52,9.10
2017,05,26,01,53,9.10
2017,05,26,01,54,9.10
2017,05,26,01,55,9.10
2017,05,26,01,56,9.10
2017,05,26,01,57,9.00
2017,05,26,01,58,9.00
2017,05,26,01,59,9.00
2017,05,26,02,00,9.00
2017,05,26,02,01,9.00
2017,05,26,02,02,8.90
2017,05,26,02,03,8.90
2017,05,26,02,04,8.90
2017,05,26,02,05,8.90
2017,05,26,02,06,8.90
2017,05,26,02,07,8.80
2017,05,26,02,08,8.80
2017,05,26,02,09,8.80
2017,05,26,02,10,8.80
2017,05,26,02,11,8.80
2017,05,26,02,12,8.80
2017,05,26,02,13,8.80
2017,05,26,02,14,8.80
2017,05,26,02,15,8.80
2017,05,26,02,16,8.80
2017,05,26,02,17,8.80
2017,05,26,02,18,8.80
2017,05,26,02,19,8.80
2017,05,26,02,20,8.70
2017,05,26,02,21,8.70
2017,05,26,02,22,8.70
2017,05,26,02,23,8.70
2017,05,26,02,24,8.70
2017,05,26,02,25,8.70
2017,05,26,02,26,8.70
2017,05,26,02,27,8.70
2017,05,26,02,28,8.70
2017,05,26,02,29,8.70
2017,05,26,02,30,8.70
2017,05,26,02,31,8.70
2017,05,26,02,32,8.70
2017,05,26,02,33,8.70
2017,05,26,02,34,8.70
2017,05,26,02,35,8.70
2017,05,26,02,36,8.70
2017,05,26,02,37,8.70
2017,05,26,02,38,8.60
2017,05,26,02,39,8.60
2017,05,26,02,40,8.60
2017,05,26,02,41,8.60
2017,05,26,02,42,8.60
2017,05,26,02,43,8.60
2017,05,26,02,44,8.60
2017,05,26,02,45,8.60
2017,05,26,02,46,8.50
2017,05,26,02,47,8.50
2017,05,26,02,48,8.50
2017,05,26,02,49,8.50
2017,05,26,02,50,8.50
2017,05,26,02,51,8.50
2017,05,26,02,52,8.50
2017,05,26,02,53,8.50
2017,05,26,02,54,8.50
2017,05,26,02,55,8.50
2017,05,26,02,56,8.40
2017,05,26,02,57,8.40
2017,05,26,02,58,8.40
2017,05,26,02,59,8.40
2017,05,26,03,00,8.40
2017,05,26,03,01,8.40
2017,05,26,03,02,8.40
2017,05,26,03,03,8.40
2017,05,26,03,04,8.40
2017,05,26,03,05,8.40
2017,05,26,03,06,8.40
2017,05,26,03,07,8.40
2017,05,26,03,08,8.30
2017,05,26,03,09,8.30
2017,05,26,03,10,8.30
2017,05,26,03,11,8.30
2017,05,26,03,12,8.30
2017,05,26,03,13,8.30
2017,05,26,03,14,8.30
2017,05,26,03,15,8.30
2017,05,26,03,16,8.30
2017,05,26,03,17,8.30
2017,05,26,03,18,8.30
2017,05,26,03,19,8.30
2017,05,26,03,20,8.30
2017,05,26,03,21,8.30
2017,05,26,03,22,8.30
2017,05,26,03,23,8.30
2017,05,26,03,24,8.30
2017,05,26,03,25,8.20
2017,05,26,03,26,8.20
2017,05,26,03,27,8.20
2017,05,26,03,28,8.20
2017,05,26,03,29,8.20
2017,05,26,03,30,8.20
2017,05,26,03,31,8.20
2017,05,26,03,32,8.20
2017,05,26,03,33,8.20
2017,05,26,03,34,8.20
2017,05,26,03,35,8.20
2017,05,26,03,36,8.20
2017,05,26,03,37,8.10
2017,05,26,03,38,8.10
2017,05,26,03,39,8.10
2017,05,26,03,40,8.10
2017,05,26,03,41,8.10
2017,05,26,03,42,8.10
2017,05,26,03,43,8.10
2017,05,26,03,44,8.10
2017,05,26,03,45,8.10
2017,05,26,03,46,8.10
2017,05,26,03,47,8.10
2017,05,26,03,48,8.10
2017,05,26,03,49,8.10
2017,05,26,03,50,8.10
2017,05,26,03,51,8.10
2017,05,26,03,52,8.10
2017,05,26,03,53,8.10
2017,05,26,03,54,8.10
2017,05,26,03,55,8.10
2017,05,26,03,56,8.00
2017,05,26,03,57,8.00
2017,05,26,03,58,8.00
2017,05,26,03,59,8.00
2017,05,26,04,00,8.00
2017,05,26,04,01,7.90
2017,05,26,04,02,7.90
2017,05,26,04,03,7.90
2017,05,26,04,04,7.90
2017,05,26,04,05,8.00
2017,05,26,04,06,8.00
2017,05,26,04,07,8.00
2017,05,26,04,08,8.00
2017,05,26,04,09,8.00
2017,05,26,04,10,8.00
2017,05,26,04,11,8.00
2017,05,26,04,12,8.00
2017,05,26,04,13,8.00
2017,05,26,04,14,8.00
2017,05,26,04,15,8.00
2017,05,26,04,16,8.00
2017,05,26,04,17,8.00
2017,05,26,04,18,7.90
2017,05,26,04,19,7.90
2017,05,26,04,20,7.90
2017,05,26,04,21,7.90
2017,05,26,04,22,7.90
2017,05,26,04,23,7.90
2017,05,26,04,24,7.90
2017,05,26,04,25,7.80
2017,05,26,04,26,7.80
2017,05,26,04,27,7.80
2017,05,26,04,28,7.80
2017,05,26,04,29,7.80
2017,05,26,04,30,7.80
2017,05,26,04,31,7.80
2017,05,26,04,32,7.80
2017,05,26,04,33,7.80
2017,05,26,04,34,7.80
2017,05,26,04,35,7.80
2017,05,26,04,36,7.80
2017,05,26,04,37,7.80
2017,05,26,04,38,7.80
2017,05,26,04,39,7.80
2017,05,26,04,40,7.80
2017,05,26,04,41,7.80
2017,05,26,04,42,7.80
2017,05,26,04,43,7.80
2017,05,26,04,44,7.80
2017,05,26,04,45,7.80
2017,05,26,04,46,7.70
2017,05,26,04,47,7.70
2017,05,26,04,48,7.70
2017,05,26,04,49,7.70
2017,05,26,04,50,7.70
2017,05,26,04,51,7.70
2017,05,26,04,52,7.70
2017,05,26,04,53,7.70
2017,05,26,04,54,7.70
2017,05,26,04,55,7.70
2017,05,26,04,56,7.70
2017,05,26,04,57,7.70
2017,05,26,04,58,7.70
2017,05,26,04,59,7.70
2017,05,26,05,00,7.60
2017,05,26,05,01,7.60
2017,05,26,05,02,7.60
2017,05,26,05,03,7.70
2017,05,26,05,04,7.70
2017,05,26,05,05,7.70
2017,05,26,05,06,7.70
2017,05,26,05,07,7.70
2017,05,26,05,08,7.60
2017,05,26,05,09,7.60
2017,05,26,05,10,7.60
2017,05,26,05,11,7.60
2017,05,26,05,12,7.60
2017,05,26,05,13,7.60
2017,05,26,05,14,7.60
2017,05,26,05,15,7.60
2017,05,26,05,16,7.50
2017,05,26,05,17,7.50
2017,05,26,05,18,7.50
2017,05,26,05,19,7.50
2017,05,26,05,20,7.50
2017,05,26,05,21,7.50
2017,05,26,05,22,7.50
2017,05,26,05,23,7.50
2017,05,26,05,24,7.50
2017,05,26,05,25,7.50
2017,05,26,05,26,7.50
2017,05,26,05,27,7.50
2017,05,26,05,28,7.50
2017,05,26,05,29,7.50
2017,05,26,05,30,7.50
2017,05,26,05,31,7.50
2017,05,26,05,32,7.50
2017,05,26,05,33,7.60
2017,05,26,05,34,7.60
2017,05,26,05,35,7.60
2017,05,26,05,36,7.60
2017,05,26,05,37,7.60
2017,05,26,05,38,7.60
2017,05,26,05,39,7.60
2017,05,26,05,40,7.60
2017,05,26,05,41,7.60
2017,05,26,05,42,7.60
2017,05,26,05,43,7.60
2017,05,26,05,44,7.60
2017,05,26,05,45,7.60
2017,05,26,05,46,7.60
2017,05,26,05,47,7.60
2017,05,26,05,48,7.70
2017,05,26,05,49,7.70
2017,05,26,05,50,7.70
2017,05,26,05,51,7.70
2017,05,26,05,52,7.70
2017,05,26,05,53,7.70
2017,05,26,05,54,7.70
2017,05,26,05,55,7.70
2017,05,26,05,56,7.70
2017,05,26,05,57,7.80
2017,05,26,05,58,7.80
2017,05,26,05,59,7.80
2017,05,26,06,00,7.80
2017,05,26,06,01,7.80
2017,05,26,06,02,7.80
2017,05,26,06,03,7.70
2017,05,26,06,04,7.70
2017,05,26,06,05,7.70
2017,05,26,06,06,7.70
2017,05,26,06,07,7.70
2017,05,26,06,08,7.70
2017,05,26,06,09,7.80
2017,05,26,06,10,7.80
2017,05,26,06,11,7.80
2017,05,26,06,12,7.80
2017,05,26,06,13,7.80
2017,05,26,06,14,7.80
2017,05,26,06,15,7.80
2017,05,26,06,16,7.80
2017,05,26,06,17,7.80
2017,05,26,06,18,7.80
2017,05,26,06,19,7.80
2017,05,26,06,20,7.80
2017,05,26,06,21,7.80
2017,05,26,06,22,7.80
2017,05,26,06,23,7.80
2017,05,26,06,24,7.80
2017,05,26,06,25,7.80
2017,05,26,06,26,7.90
2017,05,26,06,27,7.90
2017,05,26,06,28,7.90
2017,05,26,06,29,8.00
2017,05,26,06,30,8.00
2017,05,26,06,31,8.10
2017,05,26,06,32,8.20
2017,05,26,06,33,8.20
2017,05,26,06,34,8.30
2017,05,26,06,35,8.40
2017,05,26,06,36,8.50
2017,05,26,06,37,8.60
2017,05,26,06,38,8.60
2017,05,26,06,39,8.70
2017,05,26,06,40,8.80
2017,05,26,06,41,8.90
2017,05,26,06,42,8.90
2017,05,26,06,43,9.00
2017,05,26,06,44,9.10
2017,05,26,06,45,9.20
2017,05,26,06,46,9.30
2017,05,26,06,47,9.30
2017,05,26,06,48,9.40
2017,05,26,06,49,9.40
2017,05,26,06,50,9.50
2017,05,26,06,51,9.60
2017,05,26,06,52,9.70
2017,05,26,06,53,9.70
2017,05,26,06,54,9.70
2017,05,26,06,55,9.70
2017,05,26,06,56,9.70
2017,05,26,06,57,9.70
2017,05,26,06,58,9.70
2017,05,26,06,59,9.70
2017,05,26,07,00,9.80
2017,05,26,07,01,9.80
2017,05,26,07,02,9.90
2017,05,26,07,03,10.00
2017,05,26,07,04,10.00
2017,05,26,07,05,10.10
2017,05,26,07,06,10.20
2017,05,26,07,07,10.20
2017,05,26,07,08,10.30
2017,05,26,07,09,10.30
2017,05,26,07,10,10.30
2017,05,26,07,11,10.40
2017,05,26,07,12,10.40
2017,05,26,07,13,10.50
2017,05,26,07,14,10.60
2017,05,26,07,15,10.70
2017,05,26,07,16,10.70
2017,05,26,07,17,10.80
2017,05,26,07,18,10.80
2017,05,26,07,19,10.90
2017,05,26,07,20,10.90
2017,05,26,07,21,11.00
2017,05,26,07,22,11.00
2017,05,26,07,23,11.10
2017,05,26,07,24,11.20
2017,05,26,07,25,11.20
2017,05,26,07,26,11.30
2017,05,26,07,27,11.40
2017,05,26,07,28,11.50
2017,05,26,07,29,11.60
2017,05,26,07,30,11.70
2017,05,26,07,31,11.80
2017,05,26,07,32,11.90
2017,05,26,07,33,12.00
2017,05,26,07,34,12.10
2017,05,26,07,35,12.20
2017,05,26,07,36,12.30
2017,05,26,07,37,12.40
2017,05,26,07,38,12.50
2017,05,26,07,39,12.60
2017,05,26,07,40,12.70
2017,05,26,07,41,12.80
2017,05,26,07,42,12.90
2017,05,26,07,43,13.00
2017,05,26,07,44,13.10
2017,05,26,07,45,13.20
2017,05,26,07,46,13.30
2017,05,26,07,47,13.40
2017,05,26,07,48,13.50
2017,05,26,07,49,13.60
2017,05,26,07,50,13.80
2017,05,26,07,51,14.00
2017,05,26,07,52,14.10
2017,05,26,07,53,14.20
2017,05,26,07,54,14.30
2017,05,26,07,55,14.40
2017,05,26,07,56,14.50
2017,05,26,07,57,14.70
2017,05,26,07,58,14.80
2017,05,26,07,59,14.80
2017,05,26,08,00,15.00
2017,05,26,08,01,15.10
2017,05,26,08,02,15.30
2017,05,26,08,03,15.40
2017,05,26,08,04,15.50
2017,05,26,08,05,15.60
2017,05,26,08,06,15.80
2017,05,26,08,07,15.90
2017,05,26,08,08,16.10
2017,05,26,08,09,16.20
2017,05,26,08,10,16.30
2017,05,26,08,11,16.40
2017,05,26,08,12,16.50
2017,05,26,08,13,16.60
2017,05,26,08,14,16.70
2017,05,26,08,15,16.80
2017,05,26,08,16,16.90
2017,05,26,08,17,17.00
2017,05,26,08,18,17.10
2017,05,26,08,19,17.20
2017,05,26,08,20,17.30
2017,05,26,08,21,17.30
2017,05,26,08,22,17.40
2017,05,26,08,23,17.50
2017,05,26,08,24,17.50
2017,05,26,08,25,17.60
2017,05,26,08,26,17.60
2017,05,26,08,27,17.70
2017,05,26,08,28,17.80
2017,05,26,08,29,17.80
2017,05,26,08,30,17.80
2017,05,26,08,31,17.90
2017,05,26,08,32,17.90
2017,05,26,08,33,18.00
2017,05,26,08,34,18.10
2017,05,26,08,35,18.10
2017,05,26,08,36,18.10
2017,05,26,08,37,18.20
2017,05,26,08,38,18.20
2017,05,26,08,39,18.20
2017,05,26,08,40,18.20
2017,05,26,08,41,18.20
2017,05,26,08,42,18.30
2017,05,26,08,43,18.30
2017,05,26,08,44,18.40
2017,05,26,08,45,18.40
2017,05,26,08,46,18.50
2017,05,26,08,47,18.60
2017,05,26,08,48,18.60
2017,05,26,08,49,18.70
2017,05,26,08,50,18.70
2017,05,26,08,51,18.70
2017,05,26,08,52,18.70
2017,05,26,08,53,18.80
2017,05,26,08,54,18.80
2017,05,26,08,55,18.80
2017,05,26,08,56,18.90
2017,05,26,08,57,18.90
2017,05,26,08,58,19.00
2017,05,26,08,59,19.00
2017,05,26,09,00,19.00
2017,05,26,09,01,19.00
2017,05,26,09,02,19.00
2017,05,26,09,03,19.00
2017,05,26,09,04,19.00
2017,05,26,09,05,19.10
2017,05,26,09,06,19.10
2017,05,26,09,07,19.20
2017,05,26,09,08,19.20
2017,05,26,09,09,19.20
2017,05,26,09,10,19.20
2017,05,26,09,11,19.20
2017,05,26,09,12,19.10
2017,05,26,09,13,19.10
2017,05,26,09,14,19.10
2017,05,26,09,15,19.10
2017,05,26,09,16,19.20
2017,05,26,09,17,19.20
2017,05,26,09,18,19.30
2017,05,26,09,19,19.30
2017,05,26,09,20,19.40
2017,05,26,09,21,19.40
2017,05,26,09,22,19.40
2017,05,26,09,23,19.50
2017,05,26,09,24,19.50
2017,05,26,09,25,19.50
2017,05,26,09,26,19.50
2017,05,26,09,27,19.50
2017,05,26,09,28,19.60
2017,05,26,09,29,19.70
2017,05,26,09,30,19.70
2017,05,26,09,31,19.80
2017,05,26,09,32,19.90
2017,05,26,09,33,20.00
2017,05,26,09,34,20.10
2017,05,26,09,35,20.20
2017,05,26,09,36,20.30
2017,05,26,09,37,20.40
2017,05,26,09,38,20.50
2017,05,26,09,39,20.60
2017,05,26,09,40,20.60
2017,05,26,09,41,20.70
2017,05,26,09,42,20.70
2017,05,26,09,43,20.80
2017,05,26,09,44,20.80
2017,05,26,09,45,20.90
2017,05,26,09,46,20.90
2017,05,26,09,47,21.00
2017,05,26,09,48,21.10
2017,05,26,09,49,21.00
2017,05,26,09,50,21.00
2017,05,26,09,51,21.00
2017,05,26,09,52,21.00
2017,05,26,09,53,21.10
2017,05,26,09,54,21.10
2017,05,26,09,55,21.10
2017,05,26,09,56,21.10
2017,05,26,09,57,21.10
2017,05,26,09,58,21.00
2017,05,26,09,59,21.00
2017,05,26,10,00,20.80
2017,05,26,10,01,20.70
2017,05,26,10,02,20.60
2017,05,26,10,03,20.50
2017,05,26,10,04,20.40
2017,05,26,10,05,20.40
2017,05,26,10,06,20.50
2017,05,26,10,07,20.50
2017,05,26,10,08,20.60
2017,05,26,10,09,20.60
2017,05,26,10,10,20.70
2017,05,26,10,11,20.70
2017,05,26,10,12,20.70
2017,05,26,10,13,20.70
2017,05,26,10,14,20.70
2017,05,26,10,15,20.50
2017,05,26,10,16,20.40
2017,05,26,10,17,20.40
2017,05,26,10,18,20.40
2017,05,26,10,19,20.50
2017,05,26,10,20,20.50
2017,05,26,10,21,20.60
2017,05,26,10,22,20.60
2017,05,26,10,23,20.60
2017,05,26,10,24,20.60
2017,05,26,10,25,20.70
2017,05,26,10,26,20.70
2017,05,26,10,27,20.70
2017,05,26,10,28,20.80
2017,05,26,10,29,20.90
2017,05,26,10,30,20.90
2017,05,26,10,31,21.00
2017,05,26,10,32,21.00
2017,05,26,10,33,21.10
2017,05,26,10,34,21.00
2017,05,26,10,35,21.00
2017,05,26,10,36,21.00
2017,05,26,10,37,20.90
2017,05,26,10,38,21.00
2017,05,26,10,39,21.00
2017,05,26,10,40,21.10
2017,05,26,10,41,21.00
2017,05,26,10,42,21.00
2017,05,26,10,43,21.00
2017,05,26,10,44,21.00
2017,05,26,10,45,21.10
2017,05,26,10,46,21.00
2017,05,26,10,47,21.00
2017,05,26,10,48,21.00
2017,05,26,10,49,20.90
2017,05,26,10,50,21.00
2017,05,26,10,51,21.00
2017,05,26,10,52,21.00
2017,05,26,10,53,21.00
2017,05,26,10,54,20.90
2017,05,26,10,55,20.90
2017,05,26,10,56,20.80
2017,05,26,10,57,20.80
2017,05,26,10,58,20.80
2017,05,26,10,59,20.90
2017,05,26,11,00,21.00
2017,05,26,11,01,21.10
2017,05,26,11,02,21.20
2017,05,26,11,03,21.20
2017,05,26,11,04,21.20
2017,05,26,11,05,21.20
2017,05,26,11,06,21.20
2017,05,26,11,07,21.30
2017,05,26,11,08,21.30
2017,05,26,11,09,21.40
2017,05,26,11,10,21.40
2017,05,26,11,11,21.30
2017,05,26,11,12,21.30
2017,05,26,11,13,21.30
2017,05,26,11,14,21.30
2017,05,26,11,15,21.40
2017,05,26,11,16,21.40
2017,05,26,11,17,21.40
2017,05,26,11,18,21.30
2017,05,26,11,19,21.30
2017,05,26,11,20,21.20
2017,05,26,11,21,21.20
2017,05,26,11,22,21.30
2017,05,26,11,23,21.30
2017,05,26,11,24,21.40
2017,05,26,11,25,21.60
2017,05,26,11,26,21.70
2017,05,26,11,27,21.70
2017,05,26,11,28,21.70
2017,05,26,11,29,21.70
2017,05,26,11,30,21.70
2017,05,26,11,31,21.70
2017,05,26,11,32,21.80
2017,05,26,11,33,21.80
2017,05,26,11,34,21.90
2017,05,26,11,35,21.90
2017,05,26,11,36,22.10
2017,05,26,11,37,22.20
2017,05,26,11,38,22.20
2017,05,26,11,39,22.20
2017,05,26,11,40,22.20
2017,05,26,11,41,22.30
2017,05,26,11,42,22.30
2017,05,26,11,43,22.20
2017,05,26,11,44,22.20
2017,05,26,11,45,22.20
2017,05,26,11,46,22.10
2017,05,26,11,47,22.10
2017,05,26,11,48,22.10
2017,05,26,11,49,22.00
2017,05,26,11,50,22.00
2017,05,26,11,51,21.90
2017,05,26,11,52,21.80
2017,05,26,11,53,21.80
2017,05,26,11,54,21.70
2017,05,26,11,55,21.70
2017,05,26,11,56,21.70
2017,05,26,11,57,21.70
2017,05,26,11,58,21.60
2017,05,26,11,59,21.50
2017,05,26,12,00,21.30
2017,05,26,12,01,21.20
2017,05,26,12,02,21.20
2017,05,26,12,03,21.20
2017,05,26,12,04,21.10
2017,05,26,12,05,21.20
2017,05,26,12,06,21.20
2017,05,26,12,07,21.30
2017,05,26,12,08,21.30
2017,05,26,12,09,21.40
2017,05,26,12,10,21.40
2017,05,26,12,11,21.40
2017,05,26,12,12,21.40
2017,05,26,12,13,21.40
2017,05,26,12,14,21.50
2017,05,26,12,15,21.50
2017,05,26,12,16,21.60
2017,05,26,12,17,21.60
2017,05,26,12,18,21.70
2017,05,26,12,19,21.80
2017,05,26,12,20,21.80
2017,05,26,12,21,21.80
2017,05,26,12,22,21.80
2017,05,26,12,23,21.80
2017,05,26,12,24,21.80
2017,05,26,12,25,21.70
2017,05,26,12,26,21.70
2017,05,26,12,27,21.70
2017,05,26,12,28,21.70
2017,05,26,12,29,21.70
2017,05,26,12,30,21.80
2017,05,26,12,31,21.80
2017,05,26,12,32,21.80
2017,05,26,12,33,21.80
2017,05,26,12,34,21.80
2017,05,26,12,35,21.90
2017,05,26,12,36,21.90
2017,05,26,12,37,21.90
2017,05,26,12,38,22.00
2017,05,26,12,39,22.10
2017,05,26,12,40,22.20
2017,05,26,12,41,22.30
2017,05,26,12,42,22.40
2017,05,26,12,43,22.50
2017,05,26,12,44,22.60
2017,05,26,12,45,22.60
2017,05,26,12,46,22.60
2017,05,26,12,47,22.60
2017,05,26,12,48,22.60
2017,05,26,12,49,22.60
2017,05,26,12,50,22.60
2017,05,26,12,51,22.60
2017,05,26,12,52,22.60
2017,05,26,12,53,22.70
2017,05,26,12,54,22.60
2017,05,26,12,55,22.60
2017,05,26,12,56,22.70
2017,05,26,12,57,22.70
2017,05,26,12,58,22.70
2017,05,26,12,59,22.80
2017,05,26,13,00,22.90
2017,05,26,13,01,23.00
2017,05,26,13,02,23.10
2017,05,26,13,03,23.10
2017,05,26,13,04,23.20
2017,05,26,13,05,23.10
2017,05,26,13,06,23.00
2017,05,26,13,07,23.00
2017,05,26,13,08,23.00
2017,05,26,13,09,22.90
2017,05,26,13,10,22.90
2017,05,26,13,11,23.00
2017,05,26,13,12,23.00
2017,05,26,13,13,23.10
2017,05,26,13,14,23.10
2017,05,26,13,15,23.10
2017,05,26,13,16,23.00
2017,05,26,13,17,23.00
2017,05,26,13,18,22.90
2017,05,26,13,19,23.00
2017,05,26,13,20,23.00
2017,05,26,13,21,23.10
2017,05,26,13,22,23.20
2017,05,26,13,23,23.20
2017,05,26,13,24,23.30
2017,05,26,13,25,23.30
2017,05,26,13,26,23.30
2017,05,26,13,27,23.40
2017,05,26,13,28,23.40
2017,05,26,13,29,23.50
2017,05,26,13,30,23.50
2017,05,26,13,31,23.50
2017,05,26,13,32,23.60
2017,05,26,13,33,23.60
2017,05,26,13,34,23.60
2017,05,26,13,35,23.70
2017,05,26,13,36,23.80
2017,05,26,13,37,23.80
2017,05,26,13,38,23.90
2017,05,26,13,39,23.90
2017,05,26,13,40,23.90
2017,05,26,13,41,23.80
2017,05,26,13,42,23.80
2017,05,26,13,43,23.70
2017,05,26,13,44,23.70
2017,05,26,13,45,23.70
2017,05,26,13,46,23.70
2017,05,26,13,47,23.80
2017,05,26,13,48,23.80
2017,05,26,13,49,23.90
2017,05,26,13,50,23.90
2017,05,26,13,51,24.00
2017,05,26,13,52,24.10
2017,05,26,13,53,24.20
2017,05,26,13,54,24.20
2017,05,26,13,55,24.30
2017,05,26,13,56,24.30
2017,05,26,13,57,24.30
2017,05,26,13,58,24.20
2017,05,26,13,59,24.20
2017,05,26,14,00,24.00
2017,05,26,14,01,23.90
2017,05,26,14,02,23.80
2017,05,26,14,03,23.80
2017,05,26,14,04,23.90
2017,05,26,14,05,23.80
2017,05,26,14,06,23.80
2017,05,26,14,07,23.80
2017,05,26,14,08,23.70
2017,05,26,14,09,23.70
2017,05,26,14,10,23.70
2017,05,26,14,11,23.80
2017,05,26,14,12,23.90
2017,05,26,14,13,24.10
2017,05,26,14,14,24.20
2017,05,26,14,15,24.20
2017,05,26,14,16,24.20
2017,05,26,14,17,24.20
2017,05,26,14,18,24.20
2017,05,26,14,19,24.20
2017,05,26,14,20,24.30
2017,05,26,14,21,24.30
2017,05,26,14,22,24.40
2017,05,26,14,23,24.40
2017,05,26,14,24,24.40
2017,05,26,14,25,24.40
2017,05,26,14,26,24.40
2017,05,26,14,27,24.40
2017,05,26,14,28,24.30
2017,05,26,14,29,24.40
2017,05,26,14,30,24.40
2017,05,26,14,31,24.40
2017,05,26,14,32,24.40
2017,05,26,14,33,24.30
2017,05,26,14,34,24.20
2017,05,26,14,35,24.10
2017,05,26,14,36,24.00
2017,05,26,14,37,24.00
2017,05,26,14,38,24.10
2017,05,26,14,39,24.10
2017,05,26,14,40,24.00
2017,05,26,14,41,23.90
2017,05,26,14,42,23.90
2017,05,26,14,43,23.80
2017,05,26,14,44,23.80
2017,05,26,14,45,23.80
2017,05,26,14,46,23.80
2017,05,26,14,47,23.70
2017,05,26,14,48,23.70
2017,05,26,14,49,23.60
2017,05,26,14,50,23.50
2017,05,26,14,51,23.40
2017,05,26,14,52,23.40
2017,05,26,14,53,23.40
2017,05,26,14,54,23.50
2017,05,26,14,55,23.60
2017,05,26,14,56,23.60
2017,05,26,14,57,23.60
2017,05,26,14,58,23.60
2017,05,26,14,59,23.60
2017,05,26,15,00,23.60
2017,05,26,15,01,23.70
2017,05,26,15,02,23.70
2017,05,26,15,03,23.80
2017,05,26,15,04,23.70
2017,05,26,15,05,23.70
2017,05,26,15,06,23.60
2017,05,26,15,07,23.60
2017,05,26,15,08,23.60
2017,05,26,15,09,23.60
2017,05,26,15,10,23.70
2017,05,26,15,11,23.80
2017,05,26,15,12,23.90
2017,05,26,15,13,24.00
2017,05,26,15,14,24.00
2017,05,26,15,15,24.00
2017,05,26,15,16,23.90
2017,05,26,15,17,23.90
2017,05,26,15,18,23.90
2017,05,26,15,19,23.90
2017,05,26,15,20,24.00
2017,05,26,15,21,24.00
2017,05,26,15,22,24.10
2017,05,26,15,23,24.20
2017,05,26,15,24,24.10
2017,05,26,15,25,24.10
2017,05,26,15,26,24.10
2017,05,26,15,27,24.10
2017,05,26,15,28,24.20
2017,05,26,15,29,24.20
2017,05,26,15,30,24.20
2017,05,26,15,31,24.30
2017,05,26,15,32,24.40
2017,05,26,15,33,24.50
2017,05,26,15,34,24.50
2017,05,26,15,35,24.50
2017,05,26,15,36,24.40
2017,05,26,15,37,24.40
2017,05,26,15,38,24.40
2017,05,26,15,39,24.50
2017,05,26,15,40,24.50
2017,05,26,15,41,24.60
2017,05,26,15,42,24.60
2017,05,26,15,43,24.60
2017,05,26,15,44,24.50
2017,05,26,15,45,24.40
2017,05,26,15,46,24.30
2017,05,26,15,47,24.20
2017,05,26,15,48,24.10
2017,05,26,15,49,24.10
2017,05,26,15,50,24.10
2017,05,26,15,51,24.20
2017,05,26,15,52,24.30
2017,05,26,15,53,24.40
2017,05,26,15,54,24.50
2017,05,26,15,55,24.50
2017,05,26,15,56,24.60
2017,05,26,15,57,24.60
2017,05,26,15,58,24.70
2017,05,26,15,59,24.70
2017,05,26,16,00,24.70
2017,05,26,16,01,24.60
2017,05,26,16,02,24.60
2017,05,26,16,03,24.60
2017,05,26,16,04,24.60
2017,05,26,16,05,24.60
2017,05,26,16,06,24.60
2017,05,26,16,07,24.60
2017,05,26,16,08,24.60
2017,05,26,16,09,24.60
2017,05,26,16,10,24.50
2017,05,26,16,11,24.40
2017,05,26,16,12,24.40
2017,05,26,16,13,24.40
2017,05,26,16,14,24.30
2017,05,26,16,15,24.30
2017,05,26,16,16,24.30
2017,05,26,16,17,24.20
2017,05,26,16,18,24.10
2017,05,26,16,19,24.10
2017,05,26,16,20,24.20
2017,05,26,16,21,24.20
2017,05,26,16,22,24.30
2017,05,26,16,23,24.20
2017,05,26,16,24,24.20
2017,05,26,16,25,24.30
2017,05,26,16,26,24.30
2017,05,26,16,27,24.20
2017,05,26,16,28,24.20
2017,05,26,16,29,24.10
2017,05,26,16,30,24.00
2017,05,26,16,31,23.90
2017,05,26,16,32,23.80
2017,05,26,16,33,23.70
2017,05,26,16,34,23.70
2017,05,26,16,35,23.60
2017,05,26,16,36,23.50
2017,05,26,16,37,23.40
2017,05,26,16,38,23.40
2017,05,26,16,39,23.40
2017,05,26,16,40,23.40
2017,05,26,16,41,23.40
2017,05,26,16,42,23.50
2017,05,26,16,43,23.50
2017,05,26,16,44,23.40
2017,05,26,16,45,23.40
2017,05,26,16,46,23.40
2017,05,26,16,47,23.30
2017,05,26,16,48,23.30
2017,05,26,16,49,23.20
2017,05,26,16,50,23.10
2017,05,26,16,51,23.10
2017,05,26,16,52,23.00
2017,05,26,16,53,23.00
2017,05,26,16,54,22.90
2017,05,26,16,55,22.90
2017,05,26,16,56,22.90
2017,05,26,16,57,22.90
2017,05,26,16,58,22.90
2017,05,26,16,59,22.90
2017,05,26,17,00,22.90
2017,05,26,17,01,22.80
2017,05,26,17,02,22.80
2017,05,26,17,03,22.80
2017,05,26,17,04,22.80
2017,05,26,17,05,22.80
2017,05,26,17,06,22.80
2017,05,26,17,07,22.80
2017,05,26,17,08,22.70
2017,05,26,17,09,22.70
2017,05,26,17,10,22.60
2017,05,26,17,11,22.60
2017,05,26,17,12,22.60
2017,05,26,17,13,22.60
2017,05,26,17,14,22.60
2017,05,26,17,15,22.60
2017,05,26,17,16,22.60
2017,05,26,17,17,22.70
2017,05,26,17,18,22.70
2017,05,26,17,19,22.70
2017,05,26,17,20,22.60
2017,05,26,17,21,22.70
2017,05,26,17,22,22.70
2017,05,26,17,23,22.80
2017,05,26,17,24,22.80
2017,05,26,17,25,22.90
2017,05,26,17,26,22.90
2017,05,26,17,27,22.90
2017,05,26,17,28,23.00
2017,05,26,17,29,23.10
2017,05,26,17,30,23.10
2017,05,26,17,31,23.10
2017,05,26,17,32,23.10
2017,05,26,17,33,23.10
2017,05,26,17,34,23.20
2017,05,26,17,35,23.20